{"data":{"norad_id":66247,"epoch":"2026-05-24T21:17:39.437664Z","epoch_age_seconds":84958,"freshness":"FRESH","line1":"1 66247U 25245P   26144.88726201  .00023996  00000+0  78228-3 0  9992","line2":"2 66247  53.1586 289.8950 0001091  72.3443 287.7677 15.31710693 32926","mean_motion":15.31710693,"eccentricity":0.0001091,"inclination_deg":53.1586,"raan_deg":289.895,"arg_perigee_deg":72.3443,"mean_anomaly_deg":287.7677,"bstar":0.00078228,"rev_number":3292,"period_min":94.012531647189,"perigee_km":469.9609111319,"apogee_km":471.45532913711,"semimajor_km":6848.8451201345,"source":"CELESTRAK","updated_at":"2026-05-25T13:38:21.136202Z"}}